UAL1639 KSBP-KSFO

Flight info

Callsign UAL1639
Flight time 0h 37m
Altitude 26000
Route AVILA4 MQO CLMNS LIBBO/N0417F250 NRRLI SERFR4
Aircraft A320/M-SDE3FGHIRWY/LB1

Departure

Time 2026-04-26 09:57
Airport San Luis County Regional Airport (KSBP)

Arrival

Time 2026-04-26 10:34
Airport San Francisco International Airport (KSFO)
Time Latitude Longitude Altitude Speed Heading
2026-04-26 09:43 35.23776 -120.63841 185 ft 0 kts 90°
2026-04-26 09:50 35.23777 -120.63867 185 ft 4 kts 97°
2026-04-26 09:51 35.23784 -120.63893 185 ft 4 kts 156°
2026-04-26 09:51 35.23805 -120.63896 195 ft 4 kts 183°
2026-04-26 09:51 35.23818 -120.63895 193 ft 0 kts 181°
2026-04-26 09:53 35.23810 -120.63895 197 ft 5 kts 181°
2026-04-26 09:53 35.23752 -120.63917 193 ft 11 kts 250°
2026-04-26 09:54 35.23784 -120.64009 190 ft 13 kts 300°
2026-04-26 09:54 35.23837 -120.64113 192 ft 16 kts 304°
2026-04-26 09:54 35.23906 -120.64231 194 ft 18 kts 315°
2026-04-26 09:54 35.23988 -120.64358 185 ft 20 kts 304°
2026-04-26 09:55 35.24073 -120.64508 185 ft 23 kts 304°
2026-04-26 09:55 35.24167 -120.64676 192 ft 23 kts 305°
2026-04-26 09:55 35.24237 -120.64795 198 ft 17 kts 306°
2026-04-26 09:55 35.24274 -120.64880 191 ft 10 kts 271°
2026-04-26 09:56 35.24273 -120.64886 185 ft 1 kts 265°
2026-04-26 09:56 35.24249 -120.64922 196 ft 11 kts 208°
2026-04-26 09:56 35.24163 -120.64856 198 ft 24 kts 124°
2026-04-26 09:56 35.23915 -120.64422 189 ft 100 kts 124°
2026-04-26 09:57 35.23406 -120.63527 224 ft 150 kts 124°
2026-04-26 09:57 35.22840 -120.62499 934 ft 144 kts 122°
2026-04-26 09:57 35.22158 -120.61622 1599 ft 144 kts 150°
2026-04-26 09:57 35.21212 -120.61246 2117 ft 147 kts 180°
2026-04-26 09:58 35.20144 -120.61431 2368 ft 164 kts 196°
2026-04-26 09:58 35.18950 -120.61749 2602 ft 187 kts 195°
2026-04-26 09:58 35.17593 -120.62123 2837 ft 213 kts 200°
2026-04-26 09:58 35.16298 -120.63096 3200 ft 230 kts 232°
2026-04-26 09:59 35.15648 -120.64911 3667 ft 244 kts 268°
2026-04-26 09:59 35.15781 -120.66276 4201 ft 247 kts 289°
2026-04-26 09:59 35.17197 -120.68478 5438 ft 254 kts 320°
2026-04-26 09:59 35.18615 -120.69804 6374 ft 259 kts 320°
2026-04-26 10:00 35.20062 -120.71144 7228 ft 263 kts 320°
2026-04-26 10:00 35.21529 -120.72504 8151 ft 265 kts 321°
2026-04-26 10:00 35.23001 -120.73872 9056 ft 267 kts 321°
2026-04-26 10:00 35.24463 -120.75294 9933 ft 270 kts 315°
2026-04-26 10:01 35.25662 -120.77077 10588 ft 279 kts 302°
2026-04-26 10:01 35.26590 -120.79268 10838 ft 302 kts 297°
2026-04-26 10:01 35.27539 -120.81660 11187 ft 319 kts 296°
2026-04-26 10:01 35.28512 -120.84123 11846 ft 324 kts 297°
2026-04-26 10:02 35.29499 -120.86622 12579 ft 328 kts 297°
2026-04-26 10:02 35.30499 -120.89144 13336 ft 331 kts 297°
2026-04-26 10:02 35.31513 -120.91694 14036 ft 334 kts 297°
2026-04-26 10:02 35.32536 -120.94264 14665 ft 338 kts 297°
2026-04-26 10:03 35.33572 -120.96867 15262 ft 342 kts 297°
2026-04-26 10:03 35.34604 -120.99468 15831 ft 346 kts 297°
2026-04-26 10:03 35.35662 -121.02134 16426 ft 350 kts 297°
2026-04-26 10:03 35.36733 -121.04829 17024 ft 354 kts 297°
2026-04-26 10:04 35.37815 -121.07557 17630 ft 358 kts 297°
2026-04-26 10:04 35.38908 -121.10318 18237 ft 362 kts 297°
2026-04-26 10:04 35.40014 -121.13113 18785 ft 366 kts 297°
2026-04-26 10:04 35.41289 -121.15820 19353 ft 368 kts 306°
2026-04-26 10:05 35.42967 -121.18205 19941 ft 372 kts 316°
2026-04-26 10:05 35.44875 -121.20362 20513 ft 375 kts 317°
2026-04-26 10:05 35.46804 -121.22539 21072 ft 378 kts 316°
2026-04-26 10:05 35.48746 -121.24734 21602 ft 382 kts 317°
2026-04-26 10:06 35.50703 -121.26952 22162 ft 384 kts 317°
2026-04-26 10:06 35.52672 -121.29184 22690 ft 387 kts 317°
2026-04-26 10:06 35.54656 -121.31438 23187 ft 391 kts 316°
2026-04-26 10:06 35.56658 -121.33715 23652 ft 394 kts 316°
2026-04-26 10:07 35.58679 -121.36009 24074 ft 397 kts 316°
2026-04-26 10:07 35.60716 -121.38320 24501 ft 399 kts 316°
2026-04-26 10:07 35.62759 -121.40643 24920 ft 401 kts 316°
2026-04-26 10:07 35.64811 -121.42980 25334 ft 404 kts 316°
2026-04-26 10:08 35.66877 -121.45335 25712 ft 406 kts 316°
2026-04-26 10:08 35.68954 -121.47707 25948 ft 408 kts 316°
2026-04-26 10:08 35.71032 -121.50085 25999 ft 408 kts 316°
2026-04-26 10:08 35.72406 -121.51659 25997 ft 408 kts 316°
2026-04-26 10:09 35.74483 -121.54034 25990 ft 407 kts 316°
2026-04-26 10:09 35.76561 -121.56398 25993 ft 407 kts 316°
2026-04-26 10:09 35.78637 -121.58762 25993 ft 407 kts 316°
2026-04-26 10:09 35.80709 -121.61131 25995 ft 407 kts 316°
2026-04-26 10:10 35.82781 -121.63511 25987 ft 407 kts 316°
2026-04-26 10:10 35.84849 -121.65891 25992 ft 407 kts 316°
2026-04-26 10:10 35.86917 -121.68271 25993 ft 407 kts 316°
2026-04-26 10:10 35.88988 -121.70650 25992 ft 407 kts 316°
2026-04-26 10:11 35.91059 -121.73030 26002 ft 407 kts 316°
2026-04-26 10:11 35.93133 -121.75414 25989 ft 407 kts 316°
2026-04-26 10:11 35.95213 -121.77782 25988 ft 407 kts 319°
2026-04-26 10:11 35.97539 -121.79772 26006 ft 408 kts 331°
2026-04-26 10:12 36.00155 -121.81121 25986 ft 409 kts 342°
2026-04-26 10:12 36.02948 -121.81783 25978 ft 411 kts 354°
2026-04-26 10:12 36.05806 -121.81714 25982 ft 413 kts
2026-04-26 10:12 36.08634 -121.81011 25974 ft 415 kts 11°
2026-04-26 10:13 36.11411 -121.80249 25983 ft 415 kts 10°
2026-04-26 10:13 36.14272 -121.79475 26001 ft 415 kts 10°
2026-04-26 10:13 36.17059 -121.78729 26011 ft 415 kts 10°
2026-04-26 10:13 36.19919 -121.77965 26011 ft 415 kts 10°
2026-04-26 10:14 36.22706 -121.77219 26014 ft 415 kts 10°
2026-04-26 10:14 36.25528 -121.76464 26014 ft 415 kts 10°
2026-04-26 10:14 36.28351 -121.75704 26014 ft 415 kts 10°
2026-04-26 10:14 36.31174 -121.74939 26015 ft 415 kts 10°
2026-04-26 10:15 36.32971 -121.74453 26015 ft 415 kts 10°
2026-04-26 10:15 36.35796 -121.73690 26019 ft 415 kts 10°
2026-04-26 10:15 36.38591 -121.72929 25805 ft 408 kts 10°
2026-04-26 10:15 36.41338 -121.72178 25387 ft 402 kts 10°
2026-04-26 10:16 36.44058 -121.71435 24863 ft 398 kts 10°
2026-04-26 10:16 36.46770 -121.71040 24537 ft 388 kts 359°
2026-04-26 10:16 36.49440 -121.71302 24034 ft 381 kts 349°
2026-04-26 10:16 36.51963 -121.72186 23304 ft 372 kts 338°
2026-04-26 10:17 36.54213 -121.73624 22846 ft 357 kts 328°
2026-04-26 10:17 36.56292 -121.75288 22368 ft 354 kts 328°
2026-04-26 10:17 36.58364 -121.76927 21931 ft 351 kts 328°
2026-04-26 10:17 36.60417 -121.78540 21492 ft 348 kts 329°
2026-04-26 10:18 36.62454 -121.80140 21053 ft 345 kts 329°
2026-04-26 10:18 36.64469 -121.81730 20639 ft 342 kts 329°
2026-04-26 10:18 36.66466 -121.83313 20205 ft 339 kts 328°
2026-04-26 10:18 36.68450 -121.84890 19759 ft 337 kts 329°
2026-04-26 10:19 36.70424 -121.86455 19313 ft 335 kts 329°
2026-04-26 10:19 36.72384 -121.88011 18869 ft 334 kts 329°
2026-04-26 10:19 36.74446 -121.89321 18412 ft 332 kts 339°
2026-04-26 10:19 36.76654 -121.90130 17884 ft 331 kts 347°
2026-04-26 10:20 36.78859 -121.90733 17492 ft 327 kts 347°
2026-04-26 10:20 36.81070 -121.91347 17031 ft 324 kts 347°
2026-04-26 10:20 36.83268 -121.91960 16562 ft 323 kts 347°
2026-04-26 10:20 36.85458 -121.92573 16071 ft 322 kts 347°
2026-04-26 10:21 36.87648 -121.93184 15602 ft 322 kts 347°
2026-04-26 10:21 36.89830 -121.93791 15122 ft 321 kts 346°
2026-04-26 10:21 36.92008 -121.94397 14644 ft 321 kts 346°
2026-04-26 10:21 36.94189 -121.95004 14170 ft 321 kts 346°
2026-04-26 10:22 36.96356 -121.95664 13693 ft 320 kts 343°
2026-04-26 10:22 36.98494 -121.96449 13177 ft 320 kts 341°
2026-04-26 10:22 37.00605 -121.97292 12700 ft 318 kts 341°
2026-04-26 10:22 37.02707 -121.98153 12217 ft 317 kts 341°
2026-04-26 10:23 37.04798 -121.99006 11753 ft 316 kts 341°
2026-04-26 10:23 37.06884 -121.99847 11288 ft 314 kts 341°
2026-04-26 10:23 37.08967 -122.00677 10823 ft 314 kts 341°
2026-04-26 10:23 37.11048 -122.01493 10408 ft 312 kts 341°
2026-04-26 10:24 37.13079 -122.02286 10282 ft 300 kts 341°
2026-04-26 10:24 37.15037 -122.03052 10155 ft 289 kts 341°
2026-04-26 10:24 37.16937 -122.03796 9950 ft 283 kts 341°
2026-04-26 10:24 37.18796 -122.04524 9861 ft 277 kts 341°
2026-04-26 10:25 37.20614 -122.05235 9629 ft 272 kts 341°
2026-04-26 10:25 37.22425 -122.05945 9251 ft 271 kts 341°
2026-04-26 10:25 37.24229 -122.06654 8832 ft 273 kts 341°
2026-04-26 10:25 37.26023 -122.07359 8586 ft 267 kts 341°
2026-04-26 10:26 37.27784 -122.08051 8052 ft 263 kts 340°
2026-04-26 10:26 37.29523 -122.08733 7661 ft 261 kts 340°
2026-04-26 10:26 37.31249 -122.09412 7308 ft 261 kts 340°
2026-04-26 10:26 37.32989 -122.10098 6948 ft 263 kts 340°
2026-04-26 10:27 37.34736 -122.10788 6584 ft 264 kts 340°
2026-04-26 10:27 37.36468 -122.11470 6225 ft 265 kts 340°
2026-04-26 10:27 37.38213 -122.12148 5859 ft 257 kts 341°
2026-04-26 10:27 37.39891 -122.12740 5572 ft 244 kts 342°
2026-04-26 10:28 37.41490 -122.13278 5289 ft 232 kts 342°
2026-04-26 10:28 37.43013 -122.13787 5022 ft 222 kts 341°
2026-04-26 10:28 37.44496 -122.14287 4753 ft 220 kts 341°
2026-04-26 10:28 37.45963 -122.14781 4485 ft 217 kts 341°
2026-04-26 10:29 37.47413 -122.15260 4216 ft 215 kts 341°
2026-04-26 10:29 37.48854 -122.15733 3955 ft 214 kts 341°
2026-04-26 10:29 37.50297 -122.16207 3699 ft 215 kts 342°
2026-04-26 10:29 37.51740 -122.16682 3455 ft 214 kts 341°
2026-04-26 10:30 37.53095 -122.17378 3225 ft 206 kts 321°
2026-04-26 10:30 37.54095 -122.18570 3088 ft 194 kts 301°
2026-04-26 10:30 37.54748 -122.20025 2858 ft 190 kts 294°
2026-04-26 10:30 37.55365 -122.21488 2603 ft 189 kts 294°
2026-04-26 10:31 37.55976 -122.22936 2392 ft 185 kts 294°
2026-04-26 10:31 37.56574 -122.24355 2102 ft 181 kts 294°
2026-04-26 10:31 37.57149 -122.25717 1864 ft 172 kts 294°
2026-04-26 10:31 37.57705 -122.27038 1633 ft 169 kts 294°
2026-04-26 10:32 37.58244 -122.28316 1411 ft 157 kts 294°
2026-04-26 10:32 37.58735 -122.29482 1181 ft 146 kts 294°
2026-04-26 10:32 37.59202 -122.30593 992 ft 142 kts 294°
2026-04-26 10:32 37.59660 -122.31682 792 ft 140 kts 296°
2026-04-26 10:33 37.60111 -122.32757 613 ft 138 kts 295°
2026-04-26 10:33 37.60555 -122.33812 424 ft 135 kts 295°
2026-04-26 10:33 37.60991 -122.34854 242 ft 134 kts 296°
2026-04-26 10:33 37.61421 -122.35890 59 ft 132 kts 296°
2026-04-26 10:34 37.61803 -122.36794 22 ft 99 kts 298°
2026-04-26 10:34 37.62047 -122.37374 22 ft 56 kts 298°
2026-04-26 10:34 37.62205 -122.37754 23 ft 35 kts 294°
2026-04-26 10:34 37.62232 -122.37973 22 ft 20 kts 266°
2026-04-26 10:35 37.62222 -122.38153 22 ft 20 kts 258°
2026-04-26 10:35 37.62121 -122.38241 24 ft 15 kts 207°
2026-04-26 10:35 37.62095 -122.38257 22 ft 0 kts 207°
2026-04-26 10:36 37.62092 -122.38259 22 ft 3 kts 207°
2026-04-26 10:36 37.62052 -122.38285 22 ft 8 kts 207°
2026-04-26 10:37 37.62029 -122.38350 22 ft 10 kts 286°
2026-04-26 10:37 37.62065 -122.38440 22 ft 9 kts 296°
2026-04-26 10:37 37.62038 -122.38514 22 ft 12 kts 210°
2026-04-26 10:37 37.61973 -122.38558 23 ft 7 kts 208°
2026-04-26 10:38 37.61952 -122.38572 22 ft 3 kts 214°
2026-04-26 10:38 37.61936 -122.38590 24 ft 3 kts 223°
2026-04-26 10:38 37.61918 -122.38614 22 ft 4 kts 225°
2026-04-26 10:38 37.61906 -122.38628 23 ft 2 kts 225°
2026-04-26 10:39 37.61905 -122.38630 22 ft 0 kts 225°